| time (UTC) | temp F | wind direction | speed MPH | gust MPH | rain 1hr in | rain 24hr in | rain mn in | humidity % | barometer mb |
| 20260902120444 | 64 | 55 | 1.0 | 4.0 | 0.00 | 0.44 | 0.02 | 97 | 1020.1 |
| 20260902120204 | 64 | 43 | 1.0 | 3.0 | 0.00 | 0.44 | 0.02 | 97 | 1020.0 |
| 20260902115428 | 64 | 44 | 1.0 | 4.0 | 0.00 | 0.44 | 0.02 | 97 | 1020.1 |
| 20260902115145 | 64 | 49 | 1.0 | 4.0 | 0.00 | 0.44 | 0.02 | 97 | 1020.1 |
| 20260902114635 | 64 | 76 | 0.0 | 3.0 | 0.00 | 0.44 | 0.02 | 97 | 1020.1 |
| 20260902113905 | 64 | 77 | 1.0 | 3.0 | 0.01 | 0.44 | 0.02 | 97 | 1020.0 |
| 20260902113359 | 64 | 81 | 1.0 | 3.0 | 0.01 | 0.44 | 0.02 | 97 | 1020.0 |
| 20260902112853 | 65 | 44 | 0.0 | 3.0 | 0.01 | 0.44 | 0.02 | 97 | 1020.1 |
| 20260902112343 | 65 | 40 | 0.0 | 2.0 | 0.01 | 0.44 | 0.02 | 97 | 1020.1 |
| 20260902111838 | 64 | 40 | 0.0 | 2.0 | 0.01 | 0.45 | 0.02 | 97 | 1020.1 |
| 20260902111331 | 64 | 40 | 0.0 | 2.0 | 0.01 | 0.46 | 0.02 | 97 | 1020.0 |
| 20260902111056 | 65 | 40 | 0.0 | 1.0 | 0.01 | 0.49 | 0.02 | 97 | 1020.0 |
| 20260902110315 | 64 | 40 | 0.0 | 2.0 | 0.01 | 0.56 | 0.02 | 97 | 1020.0 |
| 20260902105809 | 64 | 40 | 0.0 | 2.0 | 0.01 | 0.56 | 0.02 | 97 | 1020.0 |
| 20260902105259 | 64 | 40 | 0.0 | 2.0 | 0.01 | 0.56 | 0.02 | 97 | 1019.9 |
| 20260902105011 | 64 | 40 | 0.0 | 3.0 | 0.01 | 0.56 | 0.02 | 97 | 1020.0 |
| 20260902104248 | 64 | 40 | 0.0 | 3.0 | 0.00 | 0.55 | 0.01 | 97 | 1020.0 |
| 20260902103737 | 64 | 40 | 1.0 | 4.0 | 0.00 | 0.55 | 0.01 | 97 | 1020.0 |
| 20260902103231 | 64 | 40 | 1.0 | 4.0 | 0.00 | 0.55 | 0.01 | 97 | 1020.0 |
| 20260902102945 | 64 | 39 | 0.0 | 3.0 | 0.00 | 0.55 | 0.01 | 97 | 1020.0 |
| 20260902102215 | 64 | 39 | 1.0 | 3.0 | 0.00 | 0.55 | 0.01 | 97 | 1019.9 |
| 20260902101926 | 64 | 40 | 1.0 | 3.0 | 0.00 | 0.55 | 0.01 | 97 | 1019.8 |
| 20260902100653 | 65 | 39 | 1.0 | 4.0 | 0.00 | 0.55 | 0.01 | 97 | 1019.9 |
| 20260902100148 | 65 | 39 | 0.0 | 4.0 | 0.00 | 0.55 | 0.01 | 97 | 1019.7 |
| 20260902095641 | 65 | 39 | 1.0 | 4.0 | 0.00 | 0.55 | 0.01 | 97 | 1019.7 |
| 20260902095135 | 65 | 39 | 1.0 | 4.0 | 0.00 | 0.55 | 0.01 | 97 | 1019.6 |
| 20260902094625 | 65 | 39 | 1.0 | 4.0 | 0.00 | 0.55 | 0.01 | 97 | 1019.7 |
| 20260902094118 | 65 | 44 | 0.0 | 4.0 | 0.00 | 0.55 | 0.01 | 97 | 1019.7 |
| 20260902093609 | 65 | 44 | 0.0 | 4.0 | 0.00 | 0.55 | 0.01 | 97 | 1019.7 |
| 20260902093103 | 65 | 44 | 1.0 | 4.0 | 0.00 | 0.55 | 0.01 | 97 | 1019.6 |
| 20260902092826 | 65 | 44 | 1.0 | 4.0 | 0.00 | 0.55 | 0.01 | 96 | 1019.6 |
| 20260902092047 | 65 | 46 | 1.0 | 3.0 | 0.01 | 0.55 | 0.01 | 96 | 1019.4 |
| 20260902091541 | 65 | 47 | 0.0 | 3.0 | 0.01 | 0.55 | 0.01 | 97 | 1019.4 |
| 20260902091035 | 65 | 46 | 0.0 | 3.0 | 0.01 | 0.55 | 0.01 | 97 | 1019.5 |
| 20260902090750 | 65 | 48 | 0.0 | 3.0 | 0.01 | 0.55 | 0.01 | 96 | 1019.4 |
| 20260902090019 | 65 | 48 | 1.0 | 3.0 | 0.01 | 0.55 | 0.01 | 96 | 1019.5 |
| 20260902085949 | 65 | 48 | 1.0 | 5.0 | 0.01 | 0.55 | 0.01 | 96 | 1019.6 |
| 20260902085004 | 65 | 36 | 1.0 | 5.0 | 0.01 | 0.55 | 0.01 | 96 | 1019.4 |
| 20260902084458 | 65 | 36 | 1.0 | 5.0 | 0.01 | 0.55 | 0.01 | 96 | 1019.4 |
| 20260902084214 | 65 | 36 | 1.0 | 5.0 | 0.01 | 0.55 | 0.01 | 96 | 1019.2 |
| 20260902083441 | 65 | 36 | 1.0 | 3.0 | 0.01 | 0.55 | 0.01 | 96 | 1019.0 |
| 20260902082935 | 65 | 35 | 1.0 | 3.0 | 0.01 | 0.55 | 0.01 | 96 | 1019.1 |
| 20260902082430 | 65 | 35 | 0.0 | 3.0 | 0.01 | 0.55 | 0.01 | 96 | 1019.1 |
| 20260902081918 | 65 | 35 | 0.0 | 2.0 | 0.00 | 0.54 | 0.00 | 96 | 1019.0 |
| 20260902081412 | 65 | 35 | 0.0 | 3.0 | 0.00 | 0.54 | 0.00 | 96 | 1018.9 |
| 20260902080906 | 65 | 35 | 1.0 | 3.0 | 0.00 | 0.54 | 0.00 | 96 | 1018.9 |
| 20260902080356 | 65 | 35 | 0.0 | 3.0 | 0.00 | 0.54 | 0.00 | 96 | 1018.9 |
| 20260902075850 | 65 | 35 | 0.0 | 2.0 | 0.00 | 0.54 | 0.00 | 96 | 1018.9 |
| 20260902075344 | 65 | 35 | 0.0 | 2.0 | 0.00 | 0.54 | 0.00 | 96 | 1018.9 |
| 20260902074833 | 65 | 35 | 0.0 | 2.0 | 0.00 | 0.54 | 0.00 | 96 | 1018.9 |
| 20260902074822 | 65 | 35 | 0.0 | 1.0 | 0.00 | 0.54 | 0.00 | 96 | 1019.0 |
| 20260902073822 | 65 | 35 | 0.0 | 0.0 | 0.00 | 0.54 | 0.00 | 96 | 1018.8 |
| 20260902073312 | 65 | 35 | 0.0 | 4.0 | 0.00 | 0.54 | 0.00 | 96 | 1018.9 |
| 20260902072806 | 65 | 35 | 0.0 | 4.0 | 0.00 | 0.55 | 0.00 | 96 | 1018.8 |
| 20260902072259 | 65 | 35 | 0.0 | 4.0 | 0.00 | 0.55 | 0.00 | 96 | 1018.7 |
| 20260902071750 | 65 | 35 | 0.0 | 4.0 | 0.00 | 0.60 | 0.00 | 96 | 1018.6 |
| 20260902071508 | 65 | 36 | 0.0 | 6.0 | 0.00 | 0.61 | 0.00 | 96 | 1018.5 |
| 20260902070740 | 65 | 36 | 0.0 | 6.0 | 0.00 | 0.61 | 0.00 | 96 | 1018.6 |
| 20260902070241 | 65 | 36 | 1.0 | 6.0 | 0.00 | 0.61 | 0.00 | 96 | 1018.5 |
| 20260902065741 | 65 | 36 | 1.0 | 6.0 | 0.00 | 0.61 | 0.00 | 96 | 1018.5 |
| 20260902065242 | 65 | 46 | 1.0 | 8.0 | 0.00 | 0.61 | 0.00 | 96 | 1018.5 |
| 20260902064739 | 65 | 53 | 2.0 | 8.0 | 0.00 | 0.61 | 0.00 | 96 | 1018.4 |
| 20260902064505 | 65 | 40 | 1.0 | 8.0 | 0.00 | 0.61 | 0.00 | 96 | 1018.4 |
| 20260902063738 | 65 | 36 | 1.0 | 5.0 | 0.00 | 0.61 | 0.00 | 96 | 1018.4 |
| 20260902063238 | 65 | 59 | 1.0 | 5.0 | 0.00 | 0.61 | 0.00 | 96 | 1018.5 |
| 20260902062739 | 65 | 45 | 1.0 | 4.0 | 0.00 | 0.61 | 0.00 | 96 | 1018.5 |
| 20260902062238 | 65 | 42 | 1.0 | 4.0 | 0.00 | 0.61 | 0.00 | 96 | 1018.5 |
| 20260902061740 | 65 | 48 | 1.0 | 4.0 | 0.00 | 0.61 | 0.00 | 95 | 1018.5 |
| 20260902061242 | 65 | 52 | 1.0 | 3.0 | 0.00 | 0.61 | 0.00 | 96 | 1018.6 |
| 20260902060738 | 65 | 55 | 1.0 | 3.0 | 0.00 | 0.61 | 0.00 | 95 | 1018.7 |
| 20260902060240 | 65 | 40 | 1.0 | 4.0 | 0.00 | 0.61 | 0.00 | 95 | 1018.8 |
| 20260902055737 | 65 | 40 | 0.0 | 4.0 | 0.00 | 0.61 | 0.00 | 95 | 1018.9 |
| 20260902055508 | 65 | 40 | 0.0 | 4.0 | 0.00 | 0.61 | 0.00 | 95 | 1018.9 |
| 20260902055234 | 65 | 40 | 0.0 | 4.0 | 0.00 | 0.61 | 0.00 | 95 | 1019.0 |
| 20260902054245 | 65 | 45 | 1.0 | 3.0 | 0.00 | 0.61 | 0.00 | 95 | 1018.9 |
| 20260902053946 | 65 | 45 | 0.0 | 4.0 | 0.00 | 0.61 | 0.00 | 95 | 1019.0 |
| 20260902053832 | 65 | 45 | 0.0 | 4.0 | 0.00 | 0.61 | 0.00 | 95 | 1019.1 |
| 20260902052729 | 65 | 45 | 1.0 | 4.0 | 0.00 | 0.61 | 0.00 | 95 | 1018.9 |
| 20260902052229 | 65 | 45 | 1.0 | 4.0 | 0.00 | 0.61 | 0.00 | 95 | 1018.9 |
| 20260902051728 | 65 | 47 | 1.0 | 3.0 | 0.00 | 0.61 | 0.00 | 95 | 1018.9 |
| 20260902051230 | 65 | 46 | 1.0 | 3.0 | 0.00 | 0.61 | 0.00 | 95 | 1018.9 |
| 20260902050730 | 66 | 49 | 1.0 | 4.0 | 0.00 | 0.61 | 0.00 | 95 | 1019.1 |
| 20260902050227 | 66 | 49 | 1.0 | 4.0 | 0.00 | 0.61 | 0.00 | 95 | 1019.0 |
| 20260902045948 | 66 | 50 | 1.0 | 4.0 | 0.00 | 0.61 | 0.00 | 95 | 1018.9 |
| 20260902045227 | 66 | 49 | 1.0 | 4.0 | 0.00 | 0.61 | 0.00 | 95 | 1018.8 |
| 20260902044727 | 66 | 108 | 1.0 | 5.0 | 0.00 | 0.61 | 0.00 | 95 | 1018.7 |
| 20260902044227 | 66 | 19 | 1.0 | 5.0 | 0.00 | 0.61 | 0.00 | 95 | 1018.8 |
| 20260902043727 | 66 | 19 | 1.0 | 5.0 | 0.00 | 0.61 | 0.00 | 95 | 1018.7 |
| 20260902043448 | 66 | 44 | 0.0 | 5.0 | 0.00 | 0.62 | 0.00 | 95 | 1018.8 |
| 20260902042726 | 66 | 29 | 0.0 | 6.0 | 0.00 | 0.63 | 0.00 | 95 | 1018.7 |
| 20260902042227 | 66 | 29 | 0.0 | 6.0 | 0.00 | 0.63 | 0.00 | 95 | 1018.7 |
| 20260902041728 | 66 | 30 | 1.0 | 6.0 | 0.00 | 0.63 | 0.00 | 95 | 1018.6 |
| 20260902041711 | 66 | 30 | 1.0 | 6.0 | 0.00 | 0.63 | 0.00 | 94 | 1018.6 |
| 20260902040727 | 66 | 46 | 1.0 | 5.0 | 0.00 | 0.64 | 0.00 | 94 | 1018.3 |
| 20260902040228 | 66 | 44 | 1.0 | 4.0 | 0.00 | 0.67 | 0.00 | 95 | 1018.4 |
| 20260902035726 | 66 | 46 | 0.0 | 5.0 | 0.00 | 0.67 | 0.67 | 95 | 1018.4 |
| 20260902035229 | 66 | 27 | 0.0 | 5.0 | 0.00 | 0.67 | 0.67 | 94 | 1018.4 |
| 20260902034727 | 66 | 27 | 1.0 | 5.0 | 0.00 | 0.68 | 0.67 | 94 | 1018.3 |
| 20260902034239 | 66 | 22 | 1.0 | 5.0 | 0.00 | 0.68 | 0.67 | 94 | 1018.1 |
| 20260902033727 | 66 | 41 | 1.0 | 3.0 | 0.00 | 0.68 | 0.67 | 95 | 1018.1 |
| 20260902033449 | 66 | 48 | 1.0 | 3.0 | 0.00 | 0.68 | 0.67 | 94 | 1017.9 |
| 20260902032735 | 66 | 46 | 1.0 | 5.0 | 0.00 | 0.68 | 0.67 | 94 | 1017.9 |
| 20260902032228 | 66 | 31 | 2.0 | 5.0 | 0.00 | 0.68 | 0.67 | 94 | 1017.8 |
| 20260902031726 | 67 | 28 | 1.0 | 5.0 | 0.00 | 0.68 | 0.67 | 94 | 1017.7 |
| 20260902031227 | 67 | 55 | 1.0 | 5.0 | 0.00 | 0.68 | 0.67 | 94 | 1017.5 |
| 20260902030728 | 67 | 38 | 1.0 | 4.0 | 0.00 | 0.69 | 0.67 | 94 | 1017.5 |
| 20260902030228 | 67 | 32 | 1.0 | 4.0 | 0.00 | 0.69 | 0.67 | 94 | 1017.5 |
| 20260902025718 | 67 | 42 | 1.0 | 4.0 | 0.00 | 0.70 | 0.67 | 94 | 1017.6 |
| 20260902025212 | 67 | 329 | 0.0 | 4.0 | 0.00 | 0.72 | 0.67 | 95 | 1017.5 |
| 20260902024706 | 68 | 323 | 1.0 | 5.0 | 0.00 | 0.72 | 0.67 | 95 | 1017.5 |
| 20260902024424 | 68 | 355 | 1.0 | 5.0 | 0.00 | 0.72 | 0.67 | 95 | 1017.5 |
| 20260902023648 | 68 | 28 | 1.0 | 6.0 | 0.00 | 0.72 | 0.67 | 95 | 1017.6 |
| 20260902023411 | 68 | 30 | 1.0 | 4.0 | 0.00 | 0.72 | 0.67 | 95 | 1017.3 |
| 20260902022632 | 68 | 22 | 1.0 | 9.0 | 0.00 | 0.72 | 0.67 | 95 | 1017.3 |
| 20260902022127 | 68 | 230 | 1.0 | 9.0 | 0.00 | 0.72 | 0.67 | 94 | 1017.3 |
| 20260902021849 | 68 | 224 | 2.0 | 9.0 | 0.00 | 0.72 | 0.67 | 95 | 1017.2 |
| 20260902021110 | 69 | 261 | 2.0 | 9.0 | 0.00 | 0.72 | 0.67 | 94 | 1017.1 |
| 20260902020616 | 69 | 46 | 1.0 | 8.0 | 0.00 | 0.72 | 0.67 | 95 | 1016.4 |
| 20260902020605 | 69 | 44 | 2.0 | 8.0 | 0.00 | 0.72 | 0.67 | 95 | 1016.7 |
| 20260902015548 | 69 | 252 | 1.0 | 8.0 | 0.00 | 0.72 | 0.67 | 95 | 1016.4 |
| 20260902015042 | 69 | 243 | 2.0 | 8.0 | 0.00 | 0.72 | 0.67 | 95 | 1016.2 |
| 20260902014536 | 70 | 88 | 1.0 | 6.0 | 0.00 | 0.72 | 0.67 | 95 | 1016.1 |
| 20260902014517 | 70 | 201 | 0.0 | 8.0 | 0.00 | 0.72 | 0.67 | 95 | 1016.2 |
| 20260902013520 | 70 | 24 | 1.0 | 8.0 | 0.00 | 0.72 | 0.67 | 95 | 1016.4 |
| 20260902013014 | 70 | 24 | 1.0 | 8.0 | 0.00 | 0.72 | 0.67 | 95 | 1016.2 |
| 20260902012504 | 70 | 25 | 1.0 | 8.0 | 0.00 | 0.72 | 0.67 | 95 | 1016.2 |
| 20260902011958 | 71 | 269 | 1.0 | 5.0 | 0.00 | 0.72 | 0.67 | 95 | 1015.9 |
| 20260902011453 | 71 | 17 | 1.0 | 9.0 | 0.00 | 0.72 | 0.67 | 95 | 1016.1 |
| 20260902010954 | 71 | 20 | 2.0 | 9.0 | 0.00 | 0.72 | 0.67 | 95 | 1015.9 |
| 20260902010436 | 72 | 25 | 1.0 | 4.0 | 0.00 | 0.72 | 0.67 | 95 | 1015.8 |
| 20260902005929 | 72 | 67 | 1.0 | 9.0 | 0.00 | 0.72 | 0.67 | 96 | 1015.8 |
| 20260902005420 | 72 | 28 | 1.0 | 9.0 | 0.00 | 0.72 | 0.67 | 96 | 1015.7 |
| 20260902005133 | 72 | 31 | 1.0 | 5.0 | 0.00 | 0.72 | 0.67 | 95 | 1015.3 |
| 20260902004408 | 71 | 332 | 0.0 | 3.0 | 0.00 | 0.72 | 0.67 | 95 | 1015.2 |
| 20260902003858 | 71 | 247 | 0.0 | 1.0 | 0.00 | 0.72 | 0.67 | 95 | 1015.2 |
| 20260902003353 | 71 | 247 | 0.0 | 1.0 | 0.00 | 0.72 | 0.67 | 95 | 1015.3 |
| 20260902002847 | 71 | 247 | 0.0 | 1.0 | 0.00 | 0.72 | 0.67 | 95 | 1015.2 |
| 20260902002336 | 71 | 247 | 0.0 | 1.0 | 0.00 | 0.72 | 0.67 | 95 | 1015.2 |
| 20260902001830 | 71 | 247 | 0.0 | 1.0 | 0.00 | 0.72 | 0.67 | 95 | 1015.1 |
| 20260902001548 | 71 | 247 | 0.0 | 0.0 | 0.00 | 0.72 | 0.67 | 95 | 1015.2 |
| 20260902000814 | 71 | 247 | 0.0 | 0.0 | 0.00 | 0.72 | 0.67 | 95 | 1015.3 |
| 20260902000308 | 71 | 247 | 0.0 | 0.0 | 0.00 | 0.72 | 0.67 | 95 | 1015.1 |
| 20260901235802 | 71 | 247 | 0.0 | 0.0 | 0.01 | 0.72 | 0.67 | 94 | 1015.1 |
| 20260901235252 | 71 | 247 | 0.0 | 1.0 | 0.01 | 0.72 | 0.67 | 94 | 1015.0 |
| 20260901234748 | 71 | 247 | 0.0 | 1.0 | 0.01 | 0.72 | 0.67 | 94 | 1015.0 |
| 20260901234501 | 71 | 247 | 0.0 | 1.0 | 0.01 | 0.72 | 0.67 | 93 | 1015.2 |
| 20260901233730 | 71 | 247 | 0.0 | 1.0 | 0.01 | 0.72 | 0.67 | 93 | 1015.0 |
| 20260901233236 | 71 | 247 | 0.0 | 2.0 | 0.06 | 0.72 | 0.67 | 93 | 1014.9 |
| 20260901233224 | 71 | 247 | 0.0 | 1.0 | 0.02 | 0.72 | 0.67 | 93 | 1014.9 |
| 20260901232208 | 72 | 247 | 0.0 | 2.0 | 0.23 | 0.72 | 0.67 | 93 | 1015.1 |
| 20260901231702 | 72 | 246 | 0.0 | 2.0 | 0.33 | 0.72 | 0.67 | 93 | 1015.1 |
| 20260901231156 | 72 | 246 | 0.0 | 2.0 | 0.33 | 0.72 | 0.67 | 93 | 1015.3 |
| 20260901230911 | 72 | 178 | 0.0 | 2.0 | 0.33 | 0.72 | 0.67 | 92 | 1015.2 |
| 20260901230141 | 73 | 148 | 0.0 | 0.0 | 0.33 | 0.72 | 0.67 | 92 | 1014.8 |
| 20260901225634 | 73 | 148 | 0.0 | 1.0 | 0.32 | 0.71 | 0.66 | 91 | 1015.0 |
| 20260901225129 | 74 | 148 | 0.0 | 1.0 | 0.32 | 0.71 | 0.66 | 91 | 1014.9 |
| 20260901224625 | 74 | 148 | 0.0 | 2.0 | 0.32 | 0.71 | 0.66 | 90 | 1014.6 |
| 20260901224125 | 75 | 148 | 0.0 | 2.0 | 0.32 | 0.71 | 0.66 | 89 | 1014.7 |
| 20260901223623 | 75 | 148 | 1.0 | 6.0 | 0.32 | 0.71 | 0.66 | 88 | 1014.7 |
| 20260901223343 | 76 | 148 | 1.0 | 6.0 | 0.31 | 0.70 | 0.65 | 86 | 1014.7 |
| 20260901222624 | 78 | 87 | 1.0 | 7.0 | 0.25 | 0.64 | 0.61 | 90 | 1015.0 |
| 20260901222121 | 79 | 84 | 1.0 | 7.0 | 0.06 | 0.45 | 0.42 | 89 | 1014.2 |
| 20260901221618 | 79 | 62 | 1.0 | 4.0 | 0.00 | 0.39 | 0.34 | 89 | 1014.2 |
| 20260901221119 | 80 | 55 | 0.0 | 4.0 | 0.00 | 0.39 | 0.34 | 88 | 1014.0 |
| 20260901220630 | 80 | 26 | 1.0 | 4.0 | 0.00 | 0.39 | 0.34 | 87 | 1014.0 |
| 20260901220619 | 80 | 26 | 0.0 | 4.0 | 0.00 | 0.39 | 0.34 | 88 | 1013.8 |
| 20260901215618 | 80 | 34 | 1.0 | 5.0 | 0.00 | 0.39 | 0.34 | 87 | 1013.9 |
| 20260901215118 | 80 | 74 | 0.0 | 5.0 | 0.00 | 0.39 | 0.34 | 86 | 1014.2 |
| 20260901214619 | 81 | 63 | 1.0 | 5.0 | 0.00 | 0.39 | 0.34 | 86 | 1014.3 |
| 20260901214353 | 81 | 50 | 1.0 | 5.0 | 0.00 | 0.39 | 0.34 | 86 | 1014.2 |
| 20260901213615 | 81 | 29 | 1.0 | 5.0 | 0.00 | 0.39 | 0.34 | 85 | 1014.0 |
| 20260901213115 | 82 | 328 | 2.0 | 5.0 | 0.00 | 0.39 | 0.34 | 84 | 1013.9 |
| 20260901212615 | 82 | 49 | 1.0 | 5.0 | 0.00 | 0.39 | 0.34 | 84 | 1014.0 |
| 20260901212115 | 83 | 61 | 0.0 | 4.0 | 0.00 | 0.39 | 0.34 | 84 | 1013.9 |
| 20260901211615 | 83 | 61 | 0.0 | 4.0 | 0.00 | 0.39 | 0.34 | 83 | 1014.0 |
| 20260901211116 | 83 | 42 | 0.0 | 4.0 | 0.00 | 0.39 | 0.34 | 82 | 1013.9 |
| 20260901210612 | 84 | 215 | 0.0 | 1.0 | 0.00 | 0.39 | 0.34 | 82 | 1014.0 |
| 20260901210119 | 84 | 215 | 0.0 | 1.0 | 0.00 | 0.39 | 0.34 | 82 | 1013.9 |
| 20260901205613 | 84 | 215 | 0.0 | 1.0 | 0.00 | 0.39 | 0.34 | 83 | 1013.6 |
| 20260901205111 | 84 | 215 | 0.0 | 2.0 | 0.00 | 0.39 | 0.34 | 81 | 1013.7 |
| 20260901204609 | 84 | 215 | 0.0 | 2.0 | 0.00 | 0.39 | 0.34 | 80 | 1013.8 |
| 20260901204335 | 84 | 219 | 0.0 | 2.0 | 0.00 | 0.39 | 0.34 | 80 | 1013.9 |
| 20260901203610 | 84 | 219 | 0.0 | 2.0 | 0.00 | 0.39 | 0.34 | 81 | 1013.8 |
| 20260901203315 | 83 | 216 | 0.0 | 2.0 | 0.00 | 0.39 | 0.34 | 81 | 1013.7 |
| 20260901203211 | 83 | 219 | 0.0 | 2.0 | 0.00 | 0.39 | 0.34 | 83 | 1013.7 |
| 20260901202106 | 83 | 216 | 0.0 | 2.0 | 0.00 | 0.39 | 0.34 | 80 | 1013.9 |
| 20260901201604 | 84 | 215 | 0.0 | 3.0 | 0.00 | 0.39 | 0.34 | 81 | 1013.9 |
| 20260901201104 | 83 | 215 | 1.0 | 3.0 | 0.00 | 0.39 | 0.34 | 81 | 1014.0 |
| 20260901200604 | 83 | 107 | 1.0 | 3.0 | 0.00 | 0.39 | 0.34 | 81 | 1013.9 |
| 20260901200116 | 83 | 139 | 0.0 | 3.0 | 0.00 | 0.39 | 0.34 | 81 | 1013.8 |
| 20260901195603 | 83 | 139 | 0.0 | 3.0 | 0.00 | 0.39 | 0.34 | 80 | 1014.0 |
| 20260901195103 | 84 | 95 | 0.0 | 4.0 | 0.00 | 0.39 | 0.34 | 82 | 1013.9 |
| 20260901194605 | 83 | 95 | 0.0 | 4.0 | 0.00 | 0.39 | 0.34 | 81 | 1014.2 |
| 20260901194100 | 83 | 100 | 1.0 | 3.0 | 0.00 | 0.39 | 0.34 | 83 | 1014.0 |
| 20260901193819 | 83 | 97 | 1.0 | 3.0 | 0.00 | 0.39 | 0.34 | 82 | 1013.9 |
| 20260901193323 | 83 | 136 | 1.0 | 3.0 | 0.00 | 0.39 | 0.34 | 81 | 1014.0 |
| 20260901192557 | 83 | 94 | 1.0 | 4.0 | 0.00 | 0.40 | 0.34 | 81 | 1014.0 |
| 20260901192540 | 83 | 263 | 1.0 | 4.0 | 0.00 | 0.40 | 0.34 | 82 | 1014.2 |
| 20260901191558 | 83 | 134 | 1.0 | 4.0 | 0.00 | 0.40 | 0.34 | 81 | 1014.3 |
| 20260901191323 | 83 | 230 | 1.0 | 4.0 | 0.00 | 0.40 | 0.34 | 82 | 1014.4 |
| 20260901190603 | 82 | 27 | 1.0 | 3.0 | 0.00 | 0.40 | 0.34 | 83 | 1014.3 |
| 20260901190311 | 82 | 229 | 1.0 | 3.0 | 0.00 | 0.40 | 0.34 | 83 | 1014.4 |
| 20260901185542 | 82 | 230 | 0.0 | 2.0 | 0.00 | 0.40 | 0.34 | 84 | 1014.4 |
| 20260901185043 | 82 | 213 | 1.0 | 2.0 | 0.00 | 0.40 | 0.34 | 83 | 1014.5 |
| 20260901184543 | 81 | 161 | 0.0 | 4.0 | 0.00 | 0.40 | 0.34 | 85 | 1014.5 |
| 20260901184042 | 81 | 51 | 0.0 | 4.0 | 0.00 | 0.40 | 0.34 | 85 | 1014.5 |
| 20260901183539 | 81 | 51 | 0.0 | 4.0 | 0.00 | 0.40 | 0.34 | 86 | 1014.4 |
| 20260901183308 | 81 | 51 | 0.0 | 4.0 | 0.00 | 0.40 | 0.34 | 87 | 1014.4 |
| 20260901182540 | 80 | 117 | 0.0 | 1.0 | 0.00 | 0.40 | 0.34 | 89 | 1014.4 |
| 20260901182041 | 80 | 117 | 0.0 | 1.0 | 0.00 | 0.40 | 0.34 | 90 | 1014.3 |
| 20260901181815 | 79 | 105 | 0.0 | 1.0 | 0.00 | 0.40 | 0.34 | 92 | 1014.5 |
| 20260901181035 | 79 | 94 | 0.0 | 3.0 | 0.00 | 0.40 | 0.34 | 94 | 1014.5 |
| 20260901180535 | 78 | 94 | 0.0 | 3.0 | 0.00 | 0.40 | 0.34 | 94 | 1014.5 |
| 20260901180033 | 77 | 163 | 0.0 | 3.0 | 0.00 | 0.40 | 0.34 | 95 | 1014.4 |
| 20260901175536 | 77 | 205 | 0.0 | 3.0 | 0.00 | 0.40 | 0.34 | 97 | 1014.4 |
| 20260901175035 | 77 | 155 | 1.0 | 3.0 | 0.00 | 0.40 | 0.34 | 97 | 1014.3 |
| 20260901174536 | 77 | 88 | 0.0 | 4.0 | 0.00 | 0.40 | 0.34 | 98 | 1014.3 |
| 20260901174030 | 76 | 60 | 0.0 | 4.0 | 0.00 | 0.40 | 0.34 | 98 | 1014.0 |
| 20260901173529 | 76 | 60 | 1.0 | 4.0 | 0.00 | 0.40 | 0.34 | 98 | 1014.3 |
| 20260901173027 | 75 | 130 | 1.0 | 4.0 | 0.00 | 0.40 | 0.34 | 97 | 1014.2 |
| 20260901172527 | 75 | 66 | 1.0 | 3.0 | 0.00 | 0.40 | 0.34 | 97 | 1014.3 |
| 20260901172024 | 74 | 227 | 0.0 | 2.0 | 0.00 | 0.40 | 0.34 | 98 | 1014.3 |
| 20260901171523 | 74 | 223 | 0.0 | 2.0 | 0.00 | 0.40 | 0.34 | 98 | 1014.4 |
| 20260901171024 | 74 | 211 | 0.0 | 1.0 | 0.00 | 0.40 | 0.34 | 98 | 1014.6 |
| 20260901170751 | 74 | 166 | 0.0 | 0.0 | 0.00 | 0.40 | 0.34 | 97 | 1014.9 |
| 20260901170026 | 74 | 166 | 0.0 | 0.0 | 0.00 | 0.40 | 0.34 | 97 | 1015.3 |
| 20260901165603 | 74 | 166 | 0.0 | 1.0 | 0.01 | 0.40 | 0.34 | 97 | 1015.6 |
| 20260901165535 | 74 | 166 | 0.0 | 1.0 | 0.00 | 0.40 | 0.34 | 97 | 1015.8 |
| 20260901164534 | 74 | 166 | 0.0 | 5.0 | 0.01 | 0.40 | 0.34 | 98 | 1015.4 |
| 20260901164019 | 74 | 166 | 0.0 | 5.0 | 0.01 | 0.40 | 0.34 | 97 | 1015.4 |
| 20260901163520 | 73 | 167 | 0.0 | 5.0 | 0.01 | 0.40 | 0.34 | 98 | 1015.4 |
| 20260901163245 | 73 | 167 | 0.0 | 5.0 | 0.01 | 0.40 | 0.34 | 97 | 1015.2 |
| 20260901162520 | 73 | 162 | 0.0 | 2.0 | 0.01 | 0.40 | 0.34 | 97 | 1015.1 |
| 20260901162239 | 73 | 158 | 0.0 | 2.0 | 0.02 | 0.40 | 0.34 | 97 | 1015.1 |
| 20260901161532 | 73 | 184 | 0.0 | 0.0 | 0.03 | 0.40 | 0.34 | 97 | 1015.1 |
| 20260901161021 | 73 | 184 | 0.0 | 0.0 | 0.03 | 0.40 | 0.34 | 97 | 1015.0 |
| 20260901160746 | 73 | 184 | 0.0 | 1.0 | 0.04 | 0.40 | 0.34 | 97 | 1015.1 |
| 20260901160244 | 73 | 184 | 0.0 | 1.0 | 0.05 | 0.40 | 0.34 | 97 | 1015.3 |
| 20260901155520 | 73 | 179 | 0.0 | 0.0 | 0.06 | 0.40 | 0.34 | 97 | 1015.5 |
| 20260901155021 | 73 | 179 | 0.0 | 0.0 | 0.05 | 0.39 | 0.34 | 98 | 1015.6 |
| 20260901154521 | 72 | 179 | 0.0 | 0.0 | 0.05 | 0.39 | 0.33 | 97 | 1015.8 |
| 20260901154019 | 72 | 179 | 0.0 | 0.0 | 0.06 | 0.39 | 0.33 | 98 | 1015.9 |
| 20260901153520 | 72 | 182 | 0.0 | 0.0 | 0.07 | 0.39 | 0.33 | 97 | 1015.9 |
| 20260901153019 | 72 | 182 | 0.0 | 0.0 | 0.07 | 0.39 | 0.33 | 97 | 1016.2 |
| 20260901153008 | 72 | 182 | 0.0 | 0.0 | 0.08 | 0.39 | 0.33 | 97 | 1016.1 |
| 20260901152020 | 72 | 182 | 0.0 | 0.0 | 0.07 | 0.38 | 0.32 | 97 | 1016.3 |
| 20260901151748 | 72 | 182 | 0.0 | 0.0 | 0.06 | 0.37 | 0.31 | 97 | 1016.5 |
| 20260901151019 | 72 | 182 | 0.0 | 0.0 | 0.06 | 0.37 | 0.31 | 97 | 1016.5 |
| 20260901150520 | 72 | 182 | 0.0 | 0.0 | 0.05 | 0.36 | 0.30 | 97 | 1016.6 |
| 20260901150238 | 72 | 182 | 0.0 | 0.0 | 0.04 | 0.35 | 0.30 | 97 | 1016.7 |
| 20260901145737 | 72 | 182 | 0.0 | 0.0 | 0.03 | 0.34 | 0.28 | 97 | 1016.5 |
| 20260901145021 | 72 | 182 | 0.0 | 1.0 | 0.03 | 0.34 | 0.28 | 97 | 1016.3 |
| 20260901144515 | 72 | 182 | 0.0 | 1.0 | 0.02 | 0.33 | 0.27 | 97 | 1016.4 |
| 20260901144006 | 72 | 182 | 0.0 | 1.0 | 0.01 | 0.32 | 0.27 | 97 | 1016.6 |
| 20260901143500 | 72 | 182 | 0.0 | 1.0 | 0.01 | 0.32 | 0.26 | 97 | 1016.7 |
| 20260901142953 | 72 | 182 | 0.0 | 1.0 | 0.01 | 0.32 | 0.26 | 97 | 1016.5 |
| 20260901142456 | 72 | 182 | 0.0 | 0.0 | 0.00 | 0.31 | 0.25 | 97 | 1016.5 |
| 20260901142443 | 72 | 182 | 0.0 | 1.0 | 0.00 | 0.31 | 0.25 | 97 | 1016.5 |
| 20260901141431 | 72 | 182 | 0.0 | 0.0 | 0.00 | 0.31 | 0.25 | 97 | 1016.4 |
| 20260901140934 | 72 | 182 | 0.0 | 1.0 | 0.00 | 0.31 | 0.25 | 97 | 1015.9 |
| 20260901140415 | 72 | 182 | 0.0 | 1.0 | 0.00 | 0.31 | 0.25 | 97 | 1016.0 |
| 20260901135909 | 72 | 182 | 0.0 | 1.0 | 0.00 | 0.31 | 0.25 | 97 | 1015.9 |
| 20260901135359 | 71 | 182 | 0.0 | 1.0 | 0.00 | 0.31 | 0.25 | 97 | 1015.9 |
| 20260901135124 | 72 | 182 | 0.0 | 1.0 | 0.00 | 0.31 | 0.25 | 97 | 1015.8 |
| 20260901134610 | 71 | 182 | 0.0 | 0.0 | 0.00 | 0.31 | 0.25 | 97 | 1015.7 |
| 20260901133836 | 71 | 182 | 0.0 | 0.0 | 0.00 | 0.31 | 0.25 | 97 | 1015.9 |
| 20260901133602 | 71 | 182 | 0.0 | 0.0 | 0.00 | 0.31 | 0.25 | 97 | 1015.8 |
| 20260901132824 | 71 | 182 | 0.0 | 0.0 | 0.00 | 0.31 | 0.25 | 98 | 1015.9 |
| 20260901132314 | 71 | 182 | 0.0 | 0.0 | 0.00 | 0.31 | 0.25 | 97 | 1016.0 |
| 20260901131807 | 71 | 182 | 0.0 | 0.0 | 0.00 | 0.31 | 0.25 | 97 | 1016.0 |
| 20260901131301 | 71 | 182 | 0.0 | 0.0 | 0.00 | 0.31 | 0.25 | 97 | 1016.1 |
| 20260901130751 | 71 | 182 | 0.0 | 0.0 | 0.00 | 0.31 | 0.25 | 97 | 1016.0 |
| 20260901130507 | 71 | 182 | 0.0 | 0.0 | 0.00 | 0.31 | 0.25 | 97 | 1016.1 |
| 20260901125739 | 71 | 182 | 0.0 | 0.0 | 0.00 | 0.31 | 0.25 | 97 | 1016.1 |
| 20260901125719 | 71 | 182 | 0.0 | 0.0 | 0.00 | 0.31 | 0.25 | 97 | 1015.9 |
| 20260901124734 | 71 | 182 | 0.0 | 0.0 | 0.00 | 0.31 | 0.25 | 97 | 1016.2 |
| 20260901124217 | 70 | 182 | 0.0 | 0.0 | 0.00 | 0.31 | 0.25 | 97 | 1016.2 |
| 20260901123707 | 70 | 182 | 0.0 | 0.0 | 0.00 | 0.31 | 0.25 | 97 | 1016.2 |
| 20260901123201 | 70 | 182 | 0.0 | 0.0 | 0.00 | 0.31 | 0.25 | 97 | 1016.2 |
| 20260901122656 | 70 | 182 | 0.0 | 0.0 | 0.00 | 0.31 | 0.25 | 97 | 1016.1 |
| 20260901122146 | 70 | 182 | 0.0 | 1.0 | 0.00 | 0.31 | 0.25 | 97 | 1016.2 |
| 20260901121640 | 70 | 182 | 0.0 | 1.0 | 0.01 | 0.31 | 0.25 | 97 | 1016.1 |
| 20260901121133 | 70 | 182 | 0.0 | 1.0 | 0.02 | 0.31 | 0.25 | 97 | 1015.9 |
| 20260901120623 | 70 | 173 | 0.0 | 0.0 | 0.11 | 0.31 | 0.25 | 97 | 1015.8 |